| time (UTC) | temp C | wind direction | speed KPH | gust KPH | rain 1hr cm | rain 24hr cm | rain mn cm | humidity % | barometer mb |
| 20260507223036 | 17 | 170 | 0.0 | 4.8 | 0.00 | 0.15 | 0.15 | 57 | 1009.2 |
| 20260507221536 | 18 | 181 | 3.2 | 4.8 | 0.00 | 0.15 | 0.15 | 56 | 1009.0 |
| 20260507214535 | 18 | 145 | 1.6 | 8.0 | 0.00 | 0.15 | 0.15 | 54 | 1009.1 |
| 20260507213034 | 17 | 355 | 0.0 | 6.4 | 0.00 | 0.15 | 0.15 | 54 | 1009.1 |
| 20260507211535 | 17 | 234 | 3.2 | 4.8 | 0.00 | 0.15 | 0.15 | 52 | 1009.1 |
| 20260507210034 | 17 | 79 | 1.6 | 8.0 | 0.00 | 0.15 | 0.15 | 55 | 1009.2 |
| 20260507201532 | 18 | 194 | 4.8 | 6.4 | 0.00 | 0.15 | 0.15 | 53 | 1009.2 |
| 20260507200031 | 18 | 234 | 0.0 | 6.4 | 0.00 | 0.15 | 0.15 | 52 | 1009.4 |
| 20260507194531 | 17 | 142 | 0.0 | 6.4 | 0.00 | 0.15 | 0.15 | 52 | 1009.5 |
| 20260507193031 | 17 | 124 | 3.2 | 8.0 | 0.00 | 0.15 | 0.15 | 57 | 1009.6 |
| 20260507191530 | 16 | 190 | 3.2 | 9.7 | 0.00 | 0.15 | 0.15 | 55 | 1009.8 |
| 20260507190030 | 17 | 355 | 0.0 | 4.8 | 0.00 | 0.15 | 0.15 | 49 | 1009.9 |
| 20260507183029 | 17 | 49 | 1.6 | 8.0 | 0.00 | 0.15 | 0.15 | 50 | 1010.2 |
| 20260507181529 | 17 | 250 | 1.6 | 4.8 | 0.00 | 0.15 | 0.15 | 52 | 1010.2 |
| 20260507180028 | 17 | 184 | 1.6 | 6.4 | 0.00 | 0.15 | 0.15 | 55 | 1010.7 |
| 20260507174528 | 16 | 108 | 1.6 | 4.8 | 0.00 | 0.15 | 0.15 | 46 | 1010.7 |
| 20260507173027 | 16 | 259 | 1.6 | 4.8 | 0.00 | 0.15 | 0.15 | 45 | 1010.7 |
| 20260507171527 | 15 | 150 | 1.6 | 3.2 | 0.00 | 0.15 | 0.15 | 48 | 1011.1 |
| 20260507170056 | 15 | 161 | 0.0 | 4.8 | 0.00 | 0.15 | 0.15 | 55 | 1011.6 |
| 20260507164526 | 15 | 360 | 1.6 | 4.8 | 0.00 | 0.15 | 0.15 | 52 | 1011.9 |
| 20260507163026 | 15 | 87 | 1.6 | 6.4 | 0.00 | 0.15 | 0.15 | 48 | 1012.0 |
| 20260507161525 | 15 | 184 | 0.0 | 8.0 | 0.00 | 0.15 | 0.15 | 53 | 1012.1 |
| 20260507160054 | 13 | 211 | 8.0 | 8.0 | 0.00 | 0.15 | 0.15 | 53 | 1012.2 |
| 20260507154554 | 13 | 257 | 1.6 | 4.8 | 0.00 | 0.15 | 0.15 | 54 | 1012.3 |
| 20260507153056 | 13 | 162 | 3.2 | 6.4 | 0.00 | 0.15 | 0.15 | 59 | 1012.4 |
| 20260507150024 | 12 | 138 | 0.0 | 3.2 | 0.00 | 0.18 | 0.15 | 63 | 1012.8 |
| 20260507144524 | 12 | 99 | 1.6 | 4.8 | 0.00 | 0.18 | 0.15 | 68 | 1013.1 |
| 20260507143052 | 12 | 138 | 0.0 | 3.2 | 0.00 | 0.25 | 0.15 | 66 | 1013.2 |
| 20260507141552 | 12 | 113 | 0.0 | 3.2 | 0.00 | 0.30 | 0.15 | 71 | 1013.1 |
| 20260507140051 | 12 | 121 | 0.0 | 3.2 | 0.00 | 0.30 | 0.15 | 64 | 1013.5 |
| 20260507134552 | 12 | 296 | 0.0 | 4.8 | 0.00 | 0.33 | 0.15 | 67 | 1013.5 |
| 20260507133051 | 12 | 209 | 0.0 | 6.4 | 0.00 | 0.36 | 0.15 | 64 | 1013.7 |
| 20260507131550 | 11 | 346 | 4.8 | 6.4 | 0.00 | 0.51 | 0.15 | 67 | 1013.6 |
| 20260507130050 | 12 | 36 | 0.0 | 4.8 | 0.00 | 0.69 | 0.15 | 74 | 1013.4 |
| 20260507124549 | 11 | 188 | 0.0 | 3.2 | 0.00 | 0.79 | 0.15 | 70 | 1013.5 |
| 20260507121549 | 12 | 47 | 0.0 | 3.2 | 0.00 | 0.81 | 0.15 | 77 | 1013.4 |
| 20260507120048 | 12 | 193 | 0.0 | 3.2 | 0.00 | 0.84 | 0.15 | 79 | 1013.3 |
| 20260507114547 | 12 | 173 | 0.0 | 4.8 | 0.00 | 0.89 | 0.15 | 78 | 1013.1 |
| 20260507113047 | 12 | 157 | 0.0 | 3.2 | 0.00 | 0.89 | 0.15 | 91 | 1012.7 |
| 20260507111547 | 11 | 207 | 0.0 | 0.0 | 0.00 | 0.89 | 0.15 | 91 | 1012.6 |
| 20260507104545 | 11 | 211 | 0.0 | 0.0 | 0.00 | 0.89 | 0.15 | 91 | 1012.6 |
| 20260507103045 | 11 | 211 | 0.0 | 1.6 | 0.00 | 0.89 | 0.15 | 91 | 1012.4 |
| 20260507101545 | 11 | 211 | 0.0 | 3.2 | 0.00 | 0.89 | 0.15 | 91 | 1012.4 |
| 20260507100044 | 11 | 61 | 0.0 | 1.6 | 0.00 | 0.89 | 0.15 | 89 | 1012.2 |
| 20260507094544 | 11 | 61 | 0.0 | 1.6 | 0.00 | 0.89 | 0.15 | 91 | 1012.1 |
| 20260507093044 | 11 | 12 | 0.0 | 1.6 | 0.00 | 0.89 | 0.15 | 92 | 1012.2 |
| 20260507091543 | 11 | 71 | 0.0 | 1.6 | 0.00 | 0.89 | 0.15 | 93 | 1011.9 |
| 20260507084542 | 12 | 38 | 0.0 | 0.0 | 0.00 | 0.89 | 0.15 | 93 | 1012.0 |
| 20260507083042 | 12 | 38 | 0.0 | 0.0 | 0.00 | 0.89 | 0.15 | 93 | 1011.8 |
| 20260507081543 | 12 | 38 | 0.0 | 0.0 | 0.00 | 0.89 | 0.15 | 93 | 1011.9 |
| 20260507080042 | 12 | 38 | 0.0 | 1.6 | 0.00 | 0.89 | 0.15 | 92 | 1011.8 |
| 20260507074540 | 12 | 38 | 0.0 | 3.2 | 0.00 | 0.89 | 0.15 | 92 | 1011.2 |
| 20260507073040 | 12 | 175 | 0.0 | 3.2 | 0.00 | 0.89 | 0.15 | 92 | 1011.4 |
| 20260507071539 | 12 | 315 | 0.0 | 6.4 | 0.00 | 0.89 | 0.15 | 93 | 1011.3 |
| 20260507070039 | 12 | 90 | 0.0 | 0.0 | 0.00 | 0.89 | 0.15 | 94 | 1011.3 |
| 20260507064539 | 13 | 84 | 0.0 | 1.6 | 0.00 | 0.89 | 0.15 | 93 | 1011.3 |
| 20260507063038 | 13 | 83 | 0.0 | 0.0 | 0.03 | 0.89 | 0.15 | 93 | 1011.5 |
| 20260507061538 | 13 | 83 | 0.0 | 1.6 | 0.05 | 0.89 | 0.15 | 93 | 1011.5 |
| 20260507060038 | 13 | 49 | 0.0 | 3.2 | 0.05 | 0.89 | 0.15 | 92 | 1011.3 |
| 20260507054538 | 13 | 138 | 1.6 | 3.2 | 0.08 | 0.89 | 0.15 | 91 | 1011.3 |
| 20260507053038 | 13 | 288 | 1.6 | 3.2 | 0.05 | 0.86 | 0.13 | 92 | 1011.3 |
| 20260507051536 | 13 | 201 | 0.0 | 1.6 | 0.05 | 0.84 | 0.10 | 91 | 1011.2 |
| 20260507050035 | 13 | 148 | 0.0 | 6.4 | 0.10 | 0.84 | 0.10 | 90 | 1010.8 |
| 20260507044539 | 14 | 214 | 0.0 | 6.4 | 0.08 | 0.81 | 0.08 | 89 | 1011.5 |
| 20260507043035 | 15 | 153 | 1.6 | 6.4 | 0.08 | 0.81 | 0.08 | 85 | 1011.2 |
| 20260507040034 | 16 | 232 | 3.2 | 6.4 | 0.00 | 0.74 | 0.00 | 79 | 1011.2 |
| 20260507034533 | 16 | 196 | 1.6 | 12.9 | 0.00 | 0.74 | 0.74 | 77 | 1011.0 |
| 20260507033033 | 17 | 140 | 0.0 | 4.8 | 0.00 | 0.74 | 0.74 | 80 | 1011.0 |
| 20260507031533 | 17 | 185 | 0.0 | 8.0 | 0.00 | 0.74 | 0.74 | 80 | 1010.9 |
| 20260507024532 | 18 | 144 | 0.0 | 6.4 | 0.00 | 0.74 | 0.74 | 84 | 1009.9 |
| 20260507023031 | 18 | 225 | 1.6 | 8.0 | 0.00 | 0.74 | 0.74 | 83 | 1010.2 |
| 20260507021532 | 18 | 175 | 0.0 | 3.2 | 0.00 | 0.74 | 0.74 | 83 | 1010.0 |
| 20260507020030 | 18 | 216 | 1.6 | 6.4 | 0.00 | 0.74 | 0.74 | 82 | 1009.6 |
| 20260507014531 | 18 | 223 | 3.2 | 6.4 | 0.00 | 0.74 | 0.74 | 81 | 1009.8 |
| 20260507013030 | 19 | 190 | 1.6 | 8.0 | 0.00 | 0.74 | 0.74 | 84 | 1009.5 |
| 20260507011531 | 19 | 95 | 0.0 | 3.2 | 0.00 | 0.74 | 0.74 | 87 | 1009.9 |
| 20260507003028 | 20 | 9 | 0.0 | 1.6 | 0.00 | 0.74 | 0.74 | 83 | 1009.6 |
| 20260507001528 | 20 | 34 | 0.0 | 3.2 | 0.00 | 0.74 | 0.74 | 82 | 1009.4 |
| 20260507000057 | 21 | 269 | 0.0 | 4.8 | 0.00 | 0.74 | 0.74 | 81 | 1009.2 |
| 20260506233027 | 21 | 242 | 0.0 | 6.4 | 0.00 | 0.74 | 0.74 | 79 | 1008.7 |
| 20260506231556 | 21 | 207 | 3.2 | 4.8 | 0.00 | 0.74 | 0.74 | 79 | 1008.4 |
| 20260506230055 | 21 | 344 | 0.0 | 4.8 | 0.00 | 0.74 | 0.74 | 79 | 1008.3 |
| 20260506224555 | 21 | 161 | 0.0 | 4.8 | 0.00 | 0.74 | 0.74 | 77 | 1008.4 |